Vereeniging Airport

Jump to: basic info | weather | frequencies | runways | comments

Related pages: nearby airports | nearby navaids | notams | map

Basic information (top)

Codes: FAVV
Location: lon -26.566401, lat 27.960800, elev 4,846 ft / 1,477 m msl
Status: medium_airport

Weather (top)

Current conditions (rec'd 2014/07/31 09:00Z):

FAVV 310900Z AUTO 21006KT //// // ////// 13/M00 Q1031

Airport forecast for OR Tambo International Airport 30nm (55km) NNE (rec'd 2014/07/30 00:00Z):

TAF FAOR 302200Z 3100/0106 24007KT CAVOK PROB30 
      TEMPO 3113/3115 21012KT 
     FM311600 19006KT CAVOK TX18/3112ZTN06/3104Z

Frequencies (top)

Verify before use: may be inaccurate or out of date.

CTAF: 122.1 MHz (CTAF)

Runways (top)

03/21: 5,266 x 72 ft (1,605 x 22 m) — paved — lighted — threshold 21 displaced 260 ft (79 m)

15/33: 3,724 x 52 ft (1,135 x 16 m) — paved — not lighted

Latest comments (top)

help: My son whom is in Grade 11 has a school ... [read]

Information: Good day this is Mpho, i just need to ... [read]

More... (top)

See also NOTAMs and nearby airports and navaids, or visit the Vereeniging Airport page at the main OurAirports website..